Regional Weather Roundup
Issued by NWS

Home | Current Version | Previous Version | Text Only | Print | Product List | Glossary On
Versions: 1 2 3 4 5 6 7 8 9 10 11 12 13 14 15 16 17 18 19 20 21 22 23 24 25 26 27 28 29 30 31 32 33 34 35 36 37 38 39 40 41 42 43 44 45 46 47 48 49 50
000
ASUS43 KFSD 212110
RWRSD

WEATHER ROUNDUP FOR SOUTH DAKOTA
NATIONAL WEATHER SERVICE SIOUX FALLS SD
300 PM CST WED FEB 21 2018

NOTE: "FAIR" INDICATES FEW OR NO CLOUDS BELOW 12,000 FEET WITH NO
SIGNIFICANT WEATHER AND/OR OBSTRUCTIONS TO VISIBILITY.


SDZ001>005-009-010-012>017-212200-
NORTHWEST AND NORTH CENTRAL SOUTH DAKOTA

CITY           SKY/WX    TMP DP  RH WIND       PRES   REMARKS
BUFFALO          N/A      6  -5  60 SE6       30.16F WCI  -4
FAITH            N/A      2  -5  72 SE6       30.30F WCI  -9
MOBRIDGE       FAIR       9  -1  64 S12       30.41S WCI  -6
$$

SDZ012>016-024>037-041>051-057-063-072>074-212200-
SOUTHWEST AND SOUTH CENTRAL SOUTH DAKOTA

CITY           SKY/WX    TMP DP  RH WIND       PRES   REMARKS
RAPID CTY ARPT FAIR       6  -1  73 SE10      30.20F WCI  -9
PIERRE         MIX PCPN   6  -2  69 SE10      30.42F WCI  -9
CUSTER         FAIR      18  -2  41 W16G23    30.05F WCI   3
ELLSWORTH AFB  FAIR       9  -1  63 SE7       30.18F WCI  -2
PHILIP         FAIR       6  -1  73 E8        30.33F WCI  -7
PINE RIDGE     FAIR      24  11  57 S16       30.24F WCI  11
SPEARFISH        N/A     19   0  42 CALM      30.14F
WINNER         FAIR      24   9  52 S10       30.40F WCI  14
$$

SDZ004>011-016>023-039-040-212200-
NORTHEAST SOUTH DAKOTA

CITY           SKY/WX    TMP DP  RH WIND       PRES   REMARKS
ABERDEEN       FAIR       9   0  67 S12       30.54S WCI  -6
WATERTOWN      FAIR      15   2  56 SW10      30.50S WCI   2
BROOKINGS      FAIR      15   2  56 SW7       30.54S WCI   5
SISSETON         N/A     17   2  51 S9        30.55R WCI   6
$$

SDZ017-020-022-023-036>040-048>070-212200-
SOUTHEAST SOUTH DAKOTA

CITY           SKY/WX    TMP DP  RH WIND       PRES   REMARKS
SIOUX FALLS    PTSUNNY   15   2  56 SW7       30.57F WCI   5
HURON          FAIR      17   3  54 S14       30.54F WCI   3
CHAMBERLAIN    FAIR      22   8  55 SE9       30.46F WCI  12
MITCHELL       FAIR      18   3  52 S15       30.55F WCI   4
YANKTON        FAIR      18   3  52 SE8       30.57F WCI   8
$$

ABBREVIATIONS USED IN REMARKS
   TC - TEMPERATURE IN CELSIUS
  WCI - WIND CHILL INDEX
   HX - HEAT INDEX
  VSB - VISIBILITY





USA.gov is the U.S. government's official web portal to all federal, state and local government web resources and services.